Other Public Products
Issued by NWS Charleston, SC

Home | Current Version | Previous Version | Text Only | Print | Product List | Glossary On
Versions: 1 2 3 4 5 6 7 8 9 10 11 12 13 14 15 16 17 18 19 20 21 22 23 24 25 26 27 28 29 30 31 32 33 34 35 36 37 38 39 40 41 42 43 44 45 46 47 48 49 50
000
FPUS82 KCHS 120111
OPUCHS

TEST...KCHS/KSAV Gateway Observations...TEST
National Weather Service Charleston SC
800 PM EST MON DEC 11 2017

NOTE: "fair" indicates few or no clouds below 12,000 feet with no
significant weather and/or obstructions to visibility.

SCZ050-WAZ558-NCZ071-TXZ119-213-PAZ071-DCZ001-FLZ074-172-MI076-
NYZ176-178-MAZ016-IL014-TNZ027-NJZ106-GAZ044-MD014-120200-

...Gateway Observations for Charleston International...

CITY           SKY/WX    TMP DP  RH WIND       PRES   REMARKS
Chas Airport   CLEAR     42  38  85 S8        30.07S
Seattle        PTCLDY    42  35  76 S3        30.37R
Charlotte      PTCLDY    43  32  65 S9        29.97F
Dallas DFW     PTCLDY    72  15  11 W13       30.11R
Dallas Love    PTCLDY    62  21  20 CALM      30.12R
Philladelphia  CLOUDY    35  24  64 SE6       30.00S WCI  30
Wash National  MOCLDY    42  30  62 S10       29.97S
Baltimore      PTCLDY    38  30  73 SE3       29.95F
Miami          CLEAR     59  42  53 NW3       30.18R
Detroit        LGT SNOW  31  28  89 CALM      29.75S FOG
Newark         MOCLDY    38  21  50 CALM      30.01S
Laguardia      MOCLDY    39  22  50 SW7       30.02R WCI  34
J F K          MOCLDY    37  23  56 W8        30.03S WCI  31
Boston Logan   CLOUDY    36  16  44 W5        30.02S WCI  32
Ft. Lauderdale PTCLDY    55  43  63 NW6       30.17R
Chicago O`Hare CLOUDY    33  30  88 NW12      29.76S WCI  24
Chicago Midway LGT SNOW  34  33  96 NW9       29.77R FOG     WCI  27
Houston Bush   PTCLDY    64  35  34 SW6       30.18R
Houston Hobby  PTCLDY    57  37  47 SW5       30.19R
Nashville      CLOUDY    55  29  36 SW7       29.87R
Atlanta        PTCLDY    50  34  54 SW8       30.01F

$$

GAZ044-118-TXZ119-213-NCZ071-DCZ001-MDZ014-506-PAZ021-071-NJZ106-
NYZ176-178-MAZ106-OHZ011-021-055-MIZ076-KYZ091-ILZ014-INZ047-
MNZ060-ONZ431-120200-

...Gateway Observations for Savannah International...

CITY           SKY/WX    TMP DP  RH WIND       PRES   REMARKS
Savannah Arpt  CLEAR     49  38  65 SW8       30.09S
Atlanta        PTCLDY    50  34  54 SW8       30.01F
Charlotte      PTCLDY    43  32  65 S9        29.97F
Dallas DFW     PTCLDY    72  15  11 W13       30.11R
Houston Bush   PTCLDY    64  35  34 SW6       30.18R
Wash National  MOCLDY    42  30  62 S10       29.97S
Wash Dulles    PTCLDY    40  29  64 SE8       29.93F WCI  34
Baltimore      PTCLDY    38  30  73 SE3       29.95F
Philadelphia   CLOUDY    35  24  64 SE6       30.00S WCI  30
Newark         MOCLDY    38  21  50 CALM      30.01S
Laguardia      MOCLDY    39  22  50 SW7       30.02R WCI  34
J F K          MOCLDY    37  23  56 W8        30.03S WCI  31
Boston         CLOUDY    36  16  44 W5        30.02S WCI  32
Pittsburg      CLOUDY    36  22  56 CALM      29.77F
Akron          CLOUDY    33  21  61 SE8       29.74F WCI  26
Cleveland      CLOUDY    32  25  75 S8        29.77F WCI  25
Cincinnati     PTCLDY    43  30  60 S13       29.68F
Columbus       CLOUDY    33  27  77 E3        29.73F
Detroit        LGT SNOW  31  28  89 CALM      29.75S FOG
Chicago O`Hare CLOUDY    33  30  88 NW12      29.76S WCI  24
Minneapolis    MOCLDY    25  17  72 NW17      30.13R WCI  12
Indianapolis   MOCLDY    43  25  49 W18G29    29.70R
Toronto Canada LGT SNOW  25  23  93 SE3       29.80F

$$




USA.gov is the U.S. government's official web portal to all federal, state and local government web resources and services.